When you browse on this site, cookies collect data to enhance your experience and personalize the content and advertising you see.
Visit our Privacy Policy to learn more. By continuing to use the site, you agree to this use of cookies and data.
  • In Netherlands
  • List of Countries
  • For 7 days
  • Water Temperature
  • Satellite Maps
  • Weather Map
  • Weather Widgets
  • user-avatar
    Login

    Hourly Weather Zelenyy Bor

    Today, 21 February, Thursday

    Time Temperature Precipitation Wind Pressure Humidity
    00:00 -8°C° 0 mm 7 mps 734 mmHg 77%
    01:00 -8°C° 0 mm 7 mps 735 mmHg 78%
    02:00 -8°C° 0 mm 5 mps 735 mmHg 83%
    03:00 -9°C° 0 mm 6 mps 735 mmHg 81%
    04:00 -11°C° 0 mm 7 mps 736 mmHg 80%
    05:00 -11°C° 0 mm 7 mps 736 mmHg 79%
    06:00 -11°C° 0 mm 7 mps 736 mmHg 79%
    07:00 -11°C° 0 mm 7 mps 737 mmHg 78%
    08:00 -11°C° 0 mm 6 mps 737 mmHg 79%
    09:00 -11°C° 0 mm 7 mps 738 mmHg 76%
    10:00 -11°C° 0 mm 8 mps 739 mmHg 74%
    11:00 -10°C° 0 mm 9 mps 739 mmHg 72%
    12:00 -10°C° 0 mm 9 mps 740 mmHg 71%
    13:00 -10°C° 0 mm 8 mps 740 mmHg 71%
    14:00 -10°C° 0 mm 8 mps 741 mmHg 70%
    15:00 -10°C° 0 mm 8 mps 741 mmHg 71%
    16:00 -11°C° 0 mm 7 mps 741 mmHg 73%
    17:00 -10°C° 0 mm 6 mps 742 mmHg 74%
    18:00 -11°C° 0 mm 6 mps 742 mmHg 76%
    19:00 -12°C° 0 mm 5 mps 742 mmHg 77%
    20:00 -12°C° 0 mm 5 mps 743 mmHg 79%
    21:00 -13°C° 0 mm 5 mps 743 mmHg 79%
    22:00 -13°C° 0 mm 5 mps 744 mmHg 79%
    23:00 -13°C° 0 mm 5 mps 744 mmHg 79%

    Tomorrow, 22 February, Friday

    Time Temperature Precipitation Wind Pressure Humidity
    00:00 -13°C° 0 mm 5 mps 744 mmHg 79%
    01:00 -14°C° 0 mm 5 mps 745 mmHg 79%
    02:00 -14°C° 0 mm 5 mps 746 mmHg 80%
    03:00 -15°C° 0 mm 6 mps 746 mmHg 79%
    04:00 -15°C° 0 mm 6 mps 746 mmHg 79%
    05:00 -15°C° 0 mm 6 mps 747 mmHg 79%
    06:00 -15°C° 0 mm 6 mps 747 mmHg 79%
    07:00 -15°C° 0 mm 6 mps 747 mmHg 78%
    08:00 -15°C° 0 mm 7 mps 748 mmHg 78%
    09:00 -14°C° 0 mm 7 mps 748 mmHg 75%
    10:00 -13°C° 0 mm 8 mps 749 mmHg 72%
    11:00 -14°C° 0 mm 9 mps 750 mmHg 69%
    12:00 -12°C° 0 mm 9 mps 750 mmHg 67%
    13:00 -12°C° 0 mm 8 mps 750 mmHg 65%
    14:00 -11°C° 0 mm 8 mps 751 mmHg 64%
    15:00 -12°C° 0 mm 7 mps 751 mmHg 66%
    16:00 -11°C° 0 mm 6 mps 751 mmHg 69%
    17:00 -11°C° 0 mm 5 mps 752 mmHg 71%
    18:00 -12°C° 0 mm 5 mps 753 mmHg 73%
    19:00 -12°C° 0 mm 5 mps 753 mmHg 76%
    20:00 -13°C° 0 mm 5 mps 754 mmHg 78%
    21:00 -13°C° 0 mm 5 mps 754 mmHg 79%
    22:00 -13°C° 0 mm 5 mps 755 mmHg 81%
    23:00 -14°C° 0 mm 5 mps 755 mmHg 82%

    Day after tomorrow, 23 February, Saturday

    Time Temperature Precipitation Wind Pressure Humidity
    00:00 -14°C° 0 mm 5 mps 756 mmHg 83%
    01:00 -14°C° 0 mm 4 mps 756 mmHg 85%
    02:00 -15°C° 0 mm 4 mps 757 mmHg 87%
    03:00 -15°C° 0 mm 4 mps 757 mmHg 88%
    04:00 -15°C° 0 mm 4 mps 757 mmHg 90%
    05:00 -15°C° 0 mm 4 mps 758 mmHg 91%
    06:00 -15°C° 0 mm 4 mps 758 mmHg 91%
    07:00 -14°C° 0 mm 3 mps 758 mmHg 91%
    08:00 -14°C° 0 mm 3 mps 758 mmHg 91%
    09:00 -13°C° 0 mm 3 mps 758 mmHg 87%
    10:00 -10°C° 0 mm 3 mps 759 mmHg 83%
    11:00 -9°C° 0 mm 3 mps 759 mmHg 79%
    12:00 -8°C° 0 mm 3 mps 758 mmHg 76%
    13:00 -7°C° 0 mm 3 mps 758 mmHg 74%
    14:00 -7°C° 0 mm 3 mps 758 mmHg 71%
    15:00 -7°C° 0 mm 3 mps 758 mmHg 72%
    16:00 -7°C° 0 mm 3 mps 757 mmHg 72%
    17:00 -7°C° 0 mm 3 mps 757 mmHg 73%
    18:00 -7°C° 0 mm 3 mps 756 mmHg 75%
    19:00 -7°C° 0 mm 3 mps 756 mmHg 77%
    20:00 -8°C° 0 mm 4 mps 756 mmHg 78%
    21:00 -8°C° 0.2 mm 4 mps 755 mmHg 82%
    22:00 -8°C° 0.2 mm 5 mps 755 mmHg 85%
    23:00 -8°C° 0.2 mm 5 mps 755 mmHg 88%

    24 February, Sunday

    Time Temperature Precipitation Wind Pressure Humidity
    00:00 -8°C° 0.2 mm 5 mps 754 mmHg 89%
    01:00 -7°C° 0.2 mm 5 mps 754 mmHg 90%
    02:00 -7°C° 0.2 mm 5 mps 754 mmHg 91%
    03:00 -7°C° 0.1 mm 5 mps 753 mmHg 91%
    04:00 -6°C° 0.1 mm 5 mps 753 mmHg 92%
    05:00 -5°C° 0.1 mm 4 mps 753 mmHg 93%
    06:00 -5°C° 0 mm 4 mps 753 mmHg 93%
    07:00 -5°C° 0 mm 4 mps 753 mmHg 93%
    08:00 -5°C° 0 mm 4 mps 753 mmHg 93%
    09:00 -4°C° 0 mm 4 mps 753 mmHg 93%
    10:00 -4°C° 0 mm 4 mps 753 mmHg 93%
    11:00 -3°C° 0 mm 4 mps 753 mmHg 93%
    12:00 -3°C° 0 mm 4 mps 753 mmHg 93%
    13:00 -3°C° 0 mm 4 mps 753 mmHg 94%
    14:00 -2°C° 0 mm 4 mps 753 mmHg 94%
    15:00 -2°C° 0 mm 4 mps 752 mmHg 94%
    16:00 -2°C° 0 mm 4 mps 752 mmHg 94%
    17:00 -2°C° 0 mm 4 mps 752 mmHg 94%
    18:00 -2°C° 0 mm 4 mps 752 mmHg 94%
    19:00 -2°C° 0 mm 4 mps 752 mmHg 94%
    20:00 -2°C° 0 mm 4 mps 752 mmHg 94%
    21:00 -2°C° 0.1 mm 4 mps 751 mmHg 94%
    22:00 -2°C° 0.1 mm 4 mps 751 mmHg 94%
    23:00 -2°C° 0.1 mm 4 mps 751 mmHg 94%

    25 February, Monday

    Time Temperature Precipitation Wind Pressure Humidity
    00:00 -2°C° 0 mm 4 mps 751 mmHg 94%
    01:00 -2°C° 0 mm 4 mps 750 mmHg 94%
    02:00 -3°C° 0 mm 4 mps 750 mmHg 95%
    03:00 -4°C° 0 mm 5 mps 749 mmHg 95%
    04:00 -2°C° 0 mm 5 mps 749 mmHg 95%
    05:00 -2°C° 0 mm 5 mps 749 mmHg 95%
    06:00 -2°C° 0.1 mm 5 mps 749 mmHg 94%
    07:00 -1°C° 0.1 mm 5 mps 748 mmHg 94%
    08:00 -1°C° 0.1 mm 5 mps 748 mmHg 94%
    09:00 -1°C° 0 mm 5 mps 748 mmHg 95%
    10:00 -2°C° 0 mm 6 mps 748 mmHg 95%
    11:00 -2°C° 0 mm 6 mps 748 mmHg 96%
    12:00 -2°C° 0 mm 6 mps 748 mmHg 94%
    13:00 -2°C° 0 mm 6 mps 748 mmHg 93%
    14:00 -2°C° 0 mm 6 mps 748 mmHg 91%
    15:00 -2°C° 0 mm 6 mps 748 mmHg 88%
    16:00 -2°C° 0 mm 6 mps 747 mmHg 85%
    17:00 -2°C° 0 mm 6 mps 747 mmHg 82%
    18:00 -2°C° 0 mm 6 mps 747 mmHg 82%
    19:00 -3°C° 0 mm 6 mps 747 mmHg 83%
    20:00 -3°C° 0 mm 6 mps 746 mmHg 84%
    21:00 -3°C° 0 mm 6 mps 746 mmHg 85%
    22:00 -4°C° 0 mm 6 mps 746 mmHg 86%
    23:00 -4°C° 0 mm 6 mps 746 mmHg 87%

    26 February, Tuesday

    Time Temperature Precipitation Wind Pressure Humidity
    00:00 -4°C° 0 mm 5 mps 745 mmHg 88%
    01:00 -4°C° 0 mm 5 mps 745 mmHg 90%
    02:00 -4°C° 0 mm 4 mps 745 mmHg 91%
    03:00 -4°C° 0 mm 4 mps 744 mmHg 91%
    04:00 -4°C° 0 mm 4 mps 744 mmHg 92%
    05:00 -4°C° 0 mm 4 mps 743 mmHg 92%
    06:00 -4°C° 0 mm 4 mps 742 mmHg 92%
    07:00 -3°C° 0 mm 4 mps 742 mmHg 93%
    08:00 -3°C° 0 mm 4 mps 741 mmHg 93%
    09:00 -3°C° 0 mm 4 mps 741 mmHg 93%
    10:00 -2°C° 0 mm 4 mps 740 mmHg 93%
    11:00 -1°C° 0 mm 5 mps 739 mmHg 93%
    12:00 -1°C° 0.3 mm 5 mps 738 mmHg 93%
    13:00 -1°C° 0.3 mm 4 mps 737 mmHg 93%
    14:00 -1°C° 0.3 mm 4 mps 736 mmHg 94%
    15:00 -1°C° 0.7 mm 4 mps 736 mmHg 94%
    16:00 -1°C° 0.7 mm 4 mps 735 mmHg 94%
    17:00 -1°C° 0.7 mm 4 mps 734 mmHg 93%
    18:00 -1°C° 0.3 mm 4 mps 734 mmHg 93%
    19:00 -1°C° 0.3 mm 5 mps 735 mmHg 93%
    20:00 -1°C° 0.3 mm 5 mps 735 mmHg 93%
    21:00 -1°C° 0.2 mm 5 mps 736 mmHg 92%
    22:00 -2°C° 0.2 mm 5 mps 736 mmHg 91%
    23:00 -3°C° 0.2 mm 6 mps 737 mmHg 90%
    Show more